^^
Station Historical Data
 
Daily Summary for February 21, 2018 Units:  English    Metric   Both
« Previous Day
Next Day »
Daily Weekly Monthly Yearly Custom
  Current: High: Low: Average:
Temperature: 29.9 °F 35.3 °F 21.5 °F 28.3 °F
Dew Point: 28.1 °F 28.4 °F 17.1 °F 20.9 °F
Humidity: 93% 93% 53% 74%
Wind Speed: 0.0mph 0.0mph 0.0mph 0mph
Wind Gust: 0.0mph 3.0mph - -
WindCalm - - North
Pressure: 30.25 in 30.40 in 30.25 in -
Precipitation: 0.00 in      
Historical Graphs
 
 
Tabular Data for February 21, 2018
Time Temperature Dew Point Pressure Wind Wind Speed Wind Gust Humidity Rainfall Rate (Hourly) solar Conditions
00:00 26.9 °F 20.0 °F 30.39 in Calm     75% 0.00 in 0.0 W/m2 RA
00:05 26.7 °F 20.1 °F 30.39 in Calm     76% 0.00 in 0.0 W/m2 RA
00:10 26.6 °F 20.0 °F 30.39 in Calm     76% 0.00 in 0.0 W/m2 CLR
00:15 26.2 °F 20.0 °F 30.39 in Calm     77% 0.00 in 0.0 W/m2 CLR
00:20 26.0 °F 19.8 °F 30.39 in Calm     77% 0.00 in 0.0 W/m2 CLR
00:25 26.0 °F 20.1 °F 30.39 in Calm     78% 0.00 in 0.0 W/m2 CLR
00:30 25.9 °F 20.0 °F 30.39 in Calm     78% 0.00 in 0.0 W/m2 CLR
00:35 25.8 °F 19.9 °F 30.39 in Calm     78% 0.00 in 0.0 W/m2 CLR
00:41 25.4 °F 19.8 °F 30.40 in Calm     79% 0.00 in 0.0 W/m2 CLR
00:46 25.4 °F 20.1 °F 30.40 in Calm     80% 0.00 in 0.0 W/m2 CLR
00:51 25.6 °F 20.3 °F 30.40 in Calm     80% 0.00 in 0.0 W/m2 CLR
00:56 25.5 °F 19.9 °F 30.40 in Calm     79% 0.00 in 0.0 W/m2 CLR
01:02 25.2 °F 19.6 °F 30.40 in Calm     79% 0.00 in 0.0 W/m2 CLR
01:07 25.0 °F 19.4 °F 30.40 in Calm     79% 0.00 in 0.0 W/m2 CLR
01:12 24.9 °F 19.3 °F 30.40 in Calm     79% 0.00 in 0.0 W/m2 CLR
01:18 24.8 °F 19.5 °F 30.40 in Calm     80% 0.00 in 0.0 W/m2 CLR
01:23 24.8 °F 19.5 °F 30.40 in Calm     80% 0.00 in 0.0 W/m2 CLR
01:28 24.5 °F 18.9 °F 30.40 in Calm     79% 0.00 in 0.0 W/m2 CLR
01:33 24.4 °F 19.1 °F 30.40 in Calm     80% 0.00 in 0.0 W/m2 CLR
01:38 24.8 °F 19.5 °F 30.40 in Calm     80% 0.00 in 0.0 W/m2 CLR
01:43 25.2 °F 19.6 °F 30.40 in Calm     79% 0.00 in 0.0 W/m2 CLR
01:48 25.2 °F 19.3 °F 30.40 in Calm     78% 0.00 in 0.0 W/m2 CLR
01:53 24.9 °F 19.0 °F 30.39 in Calm     78% 0.00 in 0.0 W/m2 CLR
01:58 24.7 °F 19.1 °F 30.39 in Calm     79% 0.00 in 0.0 W/m2 CLR
02:03 24.3 °F 18.4 °F 30.39 in Calm     78% 0.00 in 0.0 W/m2 CLR
02:08 23.7 °F 18.1 °F 30.38 in Calm     79% 0.00 in 0.0 W/m2 CLR
02:13 23.4 °F 18.1 °F 30.38 in Calm     80% 0.00 in 0.0 W/m2 CLR
02:18 23.3 °F 18.3 °F 30.38 in Calm     81% 0.00 in 0.0 W/m2 CLR
02:23 23.3 °F 18.6 °F 30.38 in Calm     82% 0.00 in 0.0 W/m2 CLR
02:28 23.3 °F 18.9 °F 30.38 in Calm     83% 0.00 in 0.0 W/m2 CLR
02:33 23.3 °F 18.9 °F 30.38 in Calm     83% 0.00 in 0.0 W/m2 CLR
02:38 22.8 °F 18.1 °F 30.37 in Calm     82% 0.00 in 0.0 W/m2 CLR
02:43 22.6 °F 18.2 °F 30.37 in Calm     83% 0.00 in 0.0 W/m2 CLR
02:48 22.6 °F 18.2 °F 30.37 in Calm     83% 0.00 in 0.0 W/m2 CLR
02:53 22.4 °F 18.3 °F 30.37 in Calm     84% 0.00 in 0.0 W/m2 CLR
02:59 22.2 °F 18.1 °F 30.36 in Calm     84% 0.00 in 0.0 W/m2 CLR
03:04 22.4 °F 18.6 °F 30.37 in Calm     85% 0.00 in 0.0 W/m2 CLR
03:09 22.7 °F 18.9 °F 30.36 in Calm     85% 0.00 in 0.0 W/m2 CLR
03:14 22.6 °F 18.5 °F 30.37 in Calm     84% 0.00 in 0.0 W/m2 CLR
03:19 22.4 °F 18.3 °F 30.37 in Calm     84% 0.00 in 0.0 W/m2 CLR
03:24 22.2 °F 18.4 °F 30.37 in Calm     85% 0.00 in 0.0 W/m2 CLR
03:29 22.3 °F 18.5 °F 30.37 in Calm     85% 0.00 in 0.0 W/m2 CLR
03:34 22.0 °F 18.2 °F 30.37 in Calm     85% 0.00 in 0.0 W/m2 CLR
03:39 21.8 °F 18.0 °F 30.38 in Calm     85% 0.00 in 0.0 W/m2 CLR
03:44 21.6 °F 18.1 °F 30.38 in Calm     86% 0.00 in 0.0 W/m2 CLR
03:49 21.5 °F 18.0 °F 30.38 in Calm     86% 0.00 in 0.0 W/m2 CLR
03:54 21.5 °F 18.0 °F 30.38 in Calm     86% 0.00 in 0.0 W/m2 CLR
03:59 21.5 °F 18.0 °F 30.38 in Calm     86% 0.00 in 0.0 W/m2 CLR
04:04 21.8 °F 18.0 °F 30.38 in Calm     85% 0.00 in 0.0 W/m2 CLR
04:09 21.8 °F 17.7 °F 30.38 in Calm     84% 0.00 in 0.0 W/m2 CLR
04:14 21.7 °F 17.3 °F 30.38 in Calm     83% 0.00 in 0.0 W/m2 CLR
04:19 21.9 °F 17.5 °F 30.37 in Calm     83% 0.00 in 0.0 W/m2 CLR
04:24 22.2 °F 17.5 °F 30.37 in Calm     82% 0.00 in 0.0 W/m2 CLR
04:29 22.4 °F 17.2 °F 30.37 in Calm     80% 0.00 in 0.0 W/m2 CLR
04:34 22.6 °F 17.1 °F 30.37 in Calm     79% 0.00 in 0.0 W/m2 CLR
04:39 22.8 °F 17.3 °F 30.37 in Calm     79% 0.00 in 0.0 W/m2 CLR
04:44 23.0 °F 17.2 °F 30.36 in Calm     78% 0.00 in 0.0 W/m2 CLR
04:49 23.2 °F 17.4 °F 30.36 in Calm     78% 0.00 in 0.0 W/m2 CLR
04:54 23.3 °F 17.2 °F 30.36 in Calm     77% 0.00 in 0.0 W/m2 CLR
04:59 23.3 °F 17.5 °F 30.36 in Calm     78% 0.00 in 0.0 W/m2 CLR
05:04 23.4 °F 17.6 °F 30.36 in Calm     78% 0.00 in 0.0 W/m2 CLR
05:09 23.4 °F 17.6 °F 30.36 in Calm     78% 0.00 in 0.0 W/m2 CLR
05:14 23.5 °F 17.6 °F 30.36 in Calm     78% 0.00 in 0.0 W/m2 CLR
05:19 23.8 °F 17.6 °F 30.36 in Calm     77% 0.00 in 0.0 W/m2 CLR
05:24 24.0 °F 17.8 °F 30.36 in Calm     77% 0.00 in 0.0 W/m2 CLR
05:29 24.2 °F 17.7 °F 30.36 in Calm     76% 0.00 in 0.0 W/m2 CLR
05:34 24.4 °F 17.9 °F 30.36 in Calm     76% 0.00 in 0.0 W/m2 CLR
05:39 24.5 °F 17.7 °F 30.36 in Calm     75% 0.00 in 0.0 W/m2 CLR
05:44 24.5 °F 17.7 °F 30.36 in Calm     75% 0.00 in 0.0 W/m2 CLR
05:49 24.4 °F 17.6 °F 30.36 in Calm     75% 0.00 in 0.0 W/m2 CLR
05:54 24.3 °F 17.8 °F 30.36 in Calm     76% 0.00 in 0.0 W/m2 CLR
06:00 24.4 °F 17.6 °F 30.36 in Calm     75% 0.00 in 0.0 W/m2 CLR
06:04 24.3 °F 17.8 °F 30.36 in Calm     76% 0.00 in 0.0 W/m2 CLR
06:10 24.2 °F 17.7 °F 30.36 in Calm     76% 0.00 in 0.0 W/m2 CLR
06:15 24.4 °F 18.0 °F 30.37 in Calm     76% 0.00 in 0.0 W/m2 CLR
06:19 24.9 °F 18.1 °F 30.37 in Calm     75% 0.00 in 0.0 W/m2 CLR
06:24 25.3 °F 18.2 °F 30.37 in Calm     74% 0.00 in 0.0 W/m2 CLR
06:29 25.7 °F 18.0 °F 30.37 in Calm     72% 0.00 in 0.0 W/m2 CLR
06:34 26.1 °F 18.0 °F 30.37 in Calm     71% 0.00 in 0.0 W/m2 CLR
06:39 26.3 °F 18.2 °F 30.37 in Calm     71% 0.00 in 0.0 W/m2 CLR
06:44 26.3 °F 18.1 °F 30.37 in Calm     71% 0.00 in 0.0 W/m2 CLR
06:49 26.3 °F 18.2 °F 30.37 in Calm   2.0 mph 71% 0.00 in 0.0 W/m2 CLR
06:54 26.4 °F 18.3 °F 30.36 in Calm     71% 0.00 in 0.0 W/m2 CLR
06:59 26.5 °F 18.4 °F 30.36 in Calm     71% 0.00 in 0.0 W/m2 OVC
07:04 26.5 °F 18.7 °F 30.35 in Calm     72% 0.00 in 0.0 W/m2 OVC
07:09 26.5 °F 18.7 °F 30.35 in Calm   3.0 mph 72% 0.00 in 0.0 W/m2 OVC
07:14 26.5 °F 18.7 °F 30.35 in Calm     72% 0.00 in 0.0 W/m2 CLR
07:19 26.6 °F 18.8 °F 30.35 in Calm   2.0 mph 72% 0.00 in 7.0 W/m2 OVC
07:24 26.7 °F 18.9 °F 30.35 in Calm     72% 0.00 in 11.0 W/m2 OVC
07:29 26.8 °F 18.9 °F 30.35 in Calm     72% 0.00 in 9.0 W/m2 OVC
07:34 26.9 °F 19.1 °F 30.36 in Calm     72% 0.00 in 9.0 W/m2 OVC
07:39 26.9 °F 19.1 °F 30.36 in Calm     72% 0.00 in 12.0 W/m2 OVC
07:44 26.9 °F 19.1 °F 30.36 in Calm     72% 0.00 in 21.0 W/m2 OVC
07:49 27.0 °F 19.2 °F 30.36 in Calm     72% 0.00 in 32.0 W/m2 OVC
07:54 27.1 °F 19.3 °F 30.36 in Calm     72% 0.00 in 53.0 W/m2 OVC
08:00 27.1 °F 19.3 °F 30.36 in Calm     72% 0.00 in 76.0 W/m2 OVC
08:05 27.3 °F 19.5 °F 30.36 in Calm     72% 0.00 in 76.0 W/m2 CLR
08:10 27.5 °F 19.7 °F 30.36 in Calm     72% 0.00 in 74.0 W/m2 CLR
08:15 27.8 °F 19.9 °F 30.36 in Calm     72% 0.00 in 69.0 W/m2 CLR
08:20 28.0 °F 20.1 °F 30.36 in Calm     72% 0.00 in 63.0 W/m2 CLR
08:25 28.3 °F 20.1 °F 30.36 in Calm     71% 0.00 in 65.0 W/m2 CLR
08:30 28.5 °F 20.0 °F 30.36 in Calm     70% 0.00 in 60.0 W/m2 CLR
08:35 28.7 °F 20.1 °F 30.36 in Calm     70% 0.00 in 60.0 W/m2 CLR
08:40 28.8 °F 20.2 °F 30.36 in Calm     70% 0.00 in 69.0 W/m2 CLR
08:45 29.0 °F 20.4 °F 30.36 in Calm     70% 0.00 in 86.0 W/m2 CLR
08:50 29.2 °F 20.6 °F 30.35 in Calm     70% 0.00 in 102.0 W/m2 CLR
08:55 29.3 °F 20.7 °F 30.35 in Calm     70% 0.00 in 114.0 W/m2 CLR
09:01 29.5 °F 20.9 °F 30.35 in Calm     70% 0.00 in 113.0 W/m2 CLR
09:06 29.7 °F 21.1 °F 30.35 in Calm     70% 0.00 in 113.0 W/m2 CLR
09:11 29.8 °F 20.9 °F 30.34 in Calm     69% 0.00 in 109.0 W/m2 CLR
09:16 29.9 °F 21.0 °F 30.34 in Calm     69% 0.00 in 104.0 W/m2 CLR
09:21 30.1 °F 21.2 °F 30.33 in Calm     69% 0.00 in 120.0 W/m2 CLR
09:26 30.2 °F 20.9 °F 30.33 in Calm     68% 0.00 in 139.0 W/m2 CLR
09:31 30.3 °F 21.0 °F 30.34 in Calm     68% 0.00 in 163.0 W/m2 CLR
09:36 30.6 °F 21.3 °F 30.33 in Calm     68% 0.00 in 188.0 W/m2 CLR
09:41 30.9 °F 21.2 °F 30.33 in Calm     67% 0.00 in 232.0 W/m2 CLR
09:46 31.2 °F 21.2 °F 30.33 in Calm     66% 0.00 in 279.0 W/m2 CLR
09:51 31.6 °F 21.2 °F 30.33 in Calm     65% 0.00 in 287.0 W/m2 CLR
09:56 32.0 °F 21.6 °F 30.33 in Calm     65% 0.00 in 355.0 W/m2 CLR
10:01 32.4 °F 21.6 °F 30.33 in Calm     64% 0.00 in 294.0 W/m2 CLR
10:06 32.9 °F 21.7 °F 30.34 in Calm     63% 0.00 in 221.0 W/m2 CLR
10:11 33.2 °F 21.6 °F 30.34 in Calm     62% 0.00 in 281.0 W/m2 CLR
10:16 33.4 °F 21.4 °F 30.34 in Calm     61% 0.00 in 352.0 W/m2 CLR
10:21 33.8 °F 21.4 °F 30.34 in Calm     60% 0.00 in 427.0 W/m2 CLR
10:26 34.5 °F 22.0 °F 30.34 in Calm     60% 0.00 in 452.0 W/m2 CLR
10:31 35.1 °F 21.0 °F 30.34 in Calm     56% 0.00 in 251.0 W/m2 CLR
10:37 35.0 °F 20.4 °F 30.34 in Calm     55% 0.00 in 278.0 W/m2 CLR
10:42 34.9 °F 19.9 °F 30.33 in Calm     54% 0.00 in 279.0 W/m2 CLR
10:47 34.9 °F 19.9 °F 30.33 in Calm     54% 0.00 in 276.0 W/m2 CLR
10:52 35.0 °F 19.6 °F 30.34 in Calm     53% 0.00 in 237.0 W/m2 FEW
10:57 35.1 °F 20.1 °F 30.34 in Calm     54% 0.00 in 220.0 W/m2 SCT
11:02 35.2 °F 20.6 °F 30.34 in Calm     55% 0.00 in 232.0 W/m2 SCT
11:07 35.2 °F 20.6 °F 30.34 in Calm     55% 0.00 in 243.0 W/m2 FEW
11:12 35.1 °F 20.5 °F 30.34 in Calm     55% 0.00 in 229.0 W/m2 SCT
11:17 35.2 °F 20.6 °F 30.35 in Calm     55% 0.00 in 197.0 W/m2 SCT
11:22 35.3 °F 21.2 °F 30.35 in Calm     56% 0.00 in 237.0 W/m2 SCT
11:24 35.3 °F 20.7 °F 30.35 in Calm     55% 0.00 in 241.0 W/m2 SCT
11:30 35.3 °F 20.7 °F 30.34 in Calm     55% 0.00 in 185.0 W/m2 BKN
11:35 35.2 °F 20.2 °F 30.34 in Calm     54% 0.00 in 162.0 W/m2 BKN
11:40 35.0 °F 20.4 °F 30.34 in Calm     55% 0.00 in 160.0 W/m2 BKN
11:45 35.0 °F 20.9 °F 30.34 in Calm     56% 0.00 in 151.0 W/m2 BKN
11:50 34.8 °F 20.7 °F 30.34 in Calm     56% 0.00 in 186.0 W/m2 BKN
11:55 34.8 °F 21.1 °F 30.34 in Calm     57% 0.00 in 221.0 W/m2 SCT
12:00 34.9 °F 20.4 °F 30.33 in Calm     55% 0.00 in 223.0 W/m2 SCT
12:05 35.0 °F 20.4 °F 30.33 in Calm     55% 0.00 in 229.0 W/m2 SCT
12:10 34.9 °F 20.8 °F 30.33 in Calm     56% 0.00 in 213.0 W/m2 SCT
12:15 34.6 °F 20.9 °F 30.33 in Calm     57% 0.00 in 202.0 W/m2 BKN
12:20 34.3 °F 20.6 °F 30.33 in Calm     57% 0.00 in 162.0 W/m2 BKN
12:26 34.2 °F 20.9 °F 30.33 in Calm     58% 0.00 in 165.0 W/m2 BKN
12:31 34.2 °F 21.4 °F 30.33 in Calm     59% 0.00 in 165.0 W/m2 BKN
12:36 33.7 °F 21.7 °F 30.32 in Calm     61% 0.00 in 139.0 W/m2 BKN
12:41 33.4 °F 21.8 °F 30.32 in Calm     62% 0.00 in 132.0 W/m2 BKN
12:46 33.4 °F 21.8 °F 30.32 in Calm     62% 0.00 in 134.0 W/m2 BKN
12:51 33.4 °F 22.1 °F 30.32 in Calm     63% 0.00 in 156.0 W/m2 BKN
12:56 33.5 °F 22.6 °F 30.31 in Calm     64% 0.00 in 188.0 W/m2 BKN
13:02 33.4 °F 22.5 °F 30.31 in Calm     64% 0.00 in 202.0 W/m2 BKN
13:07 33.3 °F 22.4 °F 30.31 in Calm     64% 0.00 in 186.0 W/m2 BKN
13:12 33.2 °F 23.1 °F 30.31 in Calm     66% 0.00 in 160.0 W/m2 BKN
13:17 33.1 °F 23.3 °F 30.31 in Calm     67% 0.00 in 174.0 W/m2 BKN
13:22 32.9 °F 23.5 °F 30.31 in Calm     68% 0.00 in 206.0 W/m2 BKN
13:27 32.9 °F 23.8 °F 30.31 in Calm     69% 0.00 in 227.0 W/m2 BKN
13:32 33.1 °F 24.4 °F 30.31 in Calm     70% 0.00 in 202.0 W/m2 BKN
13:38 33.2 °F 25.1 °F 30.31 in Calm     72% 0.00 in 171.0 W/m2 BKN
13:43 33.0 °F 24.6 °F 30.31 in Calm     71% 0.00 in 144.0 W/m2 BKN
13:48 33.0 °F 25.3 °F 30.31 in Calm     73% 0.00 in 137.0 W/m2 BKN
13:53 32.7 °F 25.0 °F 30.31 in Calm     73% 0.00 in 125.0 W/m2 BKN
13:58 32.5 °F 25.1 °F 30.31 in Calm     74% 0.00 in 104.0 W/m2 BKN
14:03 32.1 °F 25.1 °F 30.31 in Calm     75% 0.00 in 95.0 W/m2 BKN
14:08 31.8 °F 25.4 °F 30.31 in Calm     77% 0.00 in 91.0 W/m2 BKN
14:13 31.5 °F 25.4 °F 30.30 in Calm     78% 0.00 in 90.0 W/m2 BKN
14:18 31.3 °F 26.1 °F 30.30 in Calm     81% 0.00 in 88.0 W/m2 BKN
14:23 31.2 °F 26.3 °F 30.30 in Calm     82% 0.00 in 84.0 W/m2 BKN
14:28 31.1 °F 26.8 °F 30.30 in Calm     84% 0.00 in 84.0 W/m2 BKN
14:33 30.8 °F 26.8 °F 30.30 in Calm     85% 0.00 in 90.0 W/m2 BKN
14:38 30.6 °F 26.6 °F 30.29 in Calm     85% 0.00 in 84.0 W/m2 BKN
14:43 30.5 °F 27.1 °F 30.29 in Calm     87% 0.00 in 72.0 W/m2 BKN
14:48 30.4 °F 27.0 °F 30.29 in Calm     87% 0.00 in 60.0 W/m2 BKN
14:54 30.3 °F 27.2 °F 30.29 in Calm     88% 0.00 in 51.0 W/m2 BKN
14:59 30.3 °F 27.4 °F 30.29 in Calm     89% 0.00 in 47.0 W/m2 BKN
15:04 30.2 °F 27.3 °F 30.28 in Calm     89% 0.00 in 47.0 W/m2 BKN
15:09 30.1 °F 27.5 °F 30.28 in Calm     90% 0.00 in 47.0 W/m2 BKN
15:14 30.1 °F 27.5 °F 30.28 in Calm     90% 0.00 in 47.0 W/m2 BKN
15:19 30.1 °F 27.8 °F 30.28 in Calm     91% 0.00 in 47.0 W/m2 BKN
15:24 30.1 °F 27.8 °F 30.27 in Calm     91% 0.00 in 47.0 W/m2 BKN
15:29 30.2 °F 28.2 °F 30.27 in Calm     92% 0.00 in 42.0 W/m2 BKN
15:34 30.2 °F 28.2 °F 30.27 in Calm     92% 0.00 in 39.0 W/m2 BKN
15:39 30.2 °F 28.2 °F 30.27 in Calm     92% 0.00 in 35.0 W/m2 BKN
15:44 30.2 °F 28.2 °F 30.27 in Calm     92% 0.00 in 33.0 W/m2 BKN
15:49 30.1 °F 28.3 °F 30.27 in Calm     93% 0.00 in 30.0 W/m2 BKN
15:54 30.1 °F 28.3 °F 30.26 in Calm     93% 0.00 in 32.0 W/m2 BKN
15:59 30.1 °F 28.3 °F 30.26 in Calm     93% 0.00 in 32.0 W/m2 BKN
16:04 30.2 °F 28.4 °F 30.26 in Calm     93% 0.00 in 28.0 W/m2 BKN
16:09 30.1 °F 28.3 °F 30.26 in Calm     93% 0.00 in 25.0 W/m2 BKN
16:14 30.0 °F 28.2 °F 30.26 in Calm     93% 0.00 in 21.0 W/m2 BKN
16:19 29.9 °F 28.1 °F 30.25 in Calm     93% 0.00 in 21.0 W/m2 BKN
16:24 29.8 °F 28.0 °F 30.25 in Calm     93% 0.00 in 23.0 W/m2 BKN
16:29 29.9 °F 28.1 °F 30.25 in Calm     93% 0.00 in 21.0 W/m2 OVC
Donkey Whisperer Farm
Compliments of Weather Underground - 2.75 mb